Weather History for Roswell, NM

Change the Weather History Date:

Tuesday, October 2, 2012

  Actual Average Record
Temperature  
Mean Temperature 67 °F 66 °F  
Max Temperature 82 °F 80 °F 99 °F (2000)
Min Temperature 52 °F 52 °F 35 °F (1965)
Degree Days  
Heating Degree Days 0 2  
Month to date heating degree days 0 4  
Since 1 July heating degree days 9 20  
Cooling Degree Days 2 3  
Month to date cooling degree days 5 6  
Year to date cooling degree days 2304 1757  
Growing Degree Days 17 (Base 50)    
Moisture  
Dew Point 51 °F    
Average Humidity 61    
Maximum Humidity 86    
Minimum Humidity 35    
Precipitation  
Precipitation 0.00 in 0.04 in 1.25 in (1902)
Month to date precipitation 0.00 0.08  
Year to date precipitation 5.52 10.54  
Sea Level Pressure  
Sea Level Pressure 29.90 in    
Wind  
Wind Speed 8 mph (SSE)    
Max Wind Speed 17 mph    
Max Gust Speed 25 mph    
Visibility 10 miles    
Events      
T = Trace of Precipitation, MM = Missing Value Source: NWS Daily Summary

Daily Weather History Graph

Daily Weather History Graph

Search for Another Location

Airport:

Trip Planner

Search our weather history database for the weather conditions in past years. The results will help you decide how hot, cold, wet, or windy it might be!

Date:

Astronomy

Oct. 02, 2012 Rise Set
Actual Time 6:53 AM MDT 6:40 PM MDT
Civil Twilight 6:28 AM MDT 7:05 PM MDT
Nautical Twilight 5:59 AM MDT 7:33 PM MDT
Astronomical Twilight 5:31 AM MDT 8:02 PM MDT
Moon 8:05 PM MDT (10/2) 9:12 AM MDT (10/2)
Length of Visible Light 12h 36m
Length of Day
11h 47m
Waning Gibbous, 94% of the Moon is Illuminated
Oct 2
Waning Gibbous
Oct 8
Last Quarter
Oct 15
New
Oct 21
First Quarter
Oct 29
Full

Hourly Weather History & Observations

Time (MDT) Temp. Dew Point Humidity Pressure Visibility Wind Dir Wind Speed Gust Speed Precip Events Conditions
1:51 AM 60.1 °F 50.0 °F 69% 30.01 in 10.0 mi West 5.8 mph - N/A   Clear
2:51 AM 57.9 °F 50.0 °F 75% 30.01 in 10.0 mi West 3.5 mph - N/A   Clear
3:51 AM 55.0 °F 50.0 °F 83% 30.01 in 10.0 mi ENE 4.6 mph - N/A   Clear
4:51 AM 55.0 °F 48.9 °F 80% 30.01 in 10.0 mi Calm Calm - N/A   Clear
5:51 AM 53.1 °F 48.9 °F 86% 30.01 in 5.0 mi Calm Calm - N/A   Clear
7:51 AM 55.0 °F 52.0 °F 89% 30.03 in 10.0 mi Calm Calm - N/A   Clear
8:51 AM 60.1 °F 51.1 °F 72% 30.02 in 10.0 mi Calm Calm - N/A   Clear
9:51 AM 64.9 °F 51.1 °F 61% 30.01 in 10.0 mi SE 6.9 mph - N/A   Clear
10:51 AM 68.0 °F 51.1 °F 55% 29.99 in 10.0 mi SE 10.4 mph - N/A   Clear
11:51 AM 72.0 °F 48.9 °F 44% 29.95 in 10.0 mi SSE 11.5 mph - N/A   Clear
12:51 PM 75.0 °F 48.9 °F 40% 29.90 in 10.0 mi SSE 8.1 mph 19.6 mph N/A   Clear
1:51 PM 78.1 °F 48.9 °F 36% 29.85 in 10.0 mi South 11.5 mph - N/A   Clear
2:51 PM 80.1 °F 50.0 °F 35% 29.82 in 10.0 mi SSE 9.2 mph 18.4 mph N/A   Clear
3:51 PM 81.0 °F 51.1 °F 35% 29.80 in 10.0 mi South 12.7 mph - N/A   Clear
4:51 PM 81.0 °F 50.0 °F 34% 29.78 in 10.0 mi SSE 12.7 mph - N/A   Clear
5:51 PM 80.1 °F 50.0 °F 35% 29.77 in 10.0 mi SSE 10.4 mph - N/A   Clear
6:51 PM 75.0 °F 52.0 °F 44% 29.78 in 10.0 mi SSE 8.1 mph - N/A   Clear
7:51 PM 72.0 °F 52.0 °F 49% 29.79 in 10.0 mi South 13.8 mph - N/A   Clear
8:51 PM 70.0 °F 52.0 °F 53% 29.79 in 10.0 mi South 10.4 mph - N/A   Clear
9:51 PM 68.0 °F 53.1 °F 59% 29.80 in 10.0 mi SSW 13.8 mph 21.9 mph N/A   Clear
10:51 PM 64.9 °F 54.0 °F 68% 29.80 in 10.0 mi South 10.4 mph - N/A   Clear